| time (UTC) | temp F | wind direction | speed MPH | gust MPH | rain 1hr in | rain 24hr in | rain mn in | humidity % | barometer mb |
| 20260831104531 | 66 | 29 | 0.0 | 0.0 | 0.00 | 0.05 | 0.05 | 97 | 1007.2 |
| 20260831103040 | 66 | 29 | 0.0 | 0.0 | 0.00 | 0.05 | 0.05 | 97 | 1007.2 |
| 20260831101520 | 65 | 29 | 0.0 | 1.0 | 0.00 | 0.05 | 0.05 | 97 | 1007.5 |
| 20260831100033 | 65 | 29 | 0.0 | 0.0 | 0.00 | 0.05 | 0.05 | 97 | 1007.5 |
| 20260831094527 | 65 | 29 | 0.0 | 0.0 | 0.00 | 0.05 | 0.05 | 96 | 1007.2 |
| 20260831093016 | 66 | 29 | 0.0 | 0.0 | 0.00 | 0.05 | 0.05 | 96 | 1007.3 |
| 20260831091517 | 66 | 29 | 0.0 | 0.0 | 0.00 | 0.05 | 0.05 | 96 | 1007.4 |
| 20260831090015 | 66 | 29 | 0.0 | 0.0 | 0.00 | 0.05 | 0.05 | 96 | 1007.3 |
| 20260831084514 | 66 | 29 | 0.0 | 0.0 | 0.00 | 0.05 | 0.05 | 96 | 1007.2 |
| 20260831083020 | 67 | 29 | 0.0 | 0.0 | 0.00 | 0.05 | 0.05 | 96 | 1007.2 |
| 20260831081509 | 67 | 29 | 0.0 | 0.0 | 0.00 | 0.05 | 0.05 | 96 | 1007.5 |
| 20260831080020 | 68 | 29 | 0.0 | 0.0 | 0.00 | 0.05 | 0.05 | 96 | 1007.7 |
| 20260831074505 | 68 | 29 | 0.0 | 0.0 | 0.00 | 0.05 | 0.05 | 96 | 1007.9 |
| 20260831073009 | 68 | 29 | 0.0 | 2.0 | 0.00 | 0.05 | 0.05 | 96 | 1008.0 |
| 20260831071602 | 68 | 29 | 0.0 | 1.0 | 0.00 | 0.05 | 0.05 | 96 | 1008.5 |
| 20260831070057 | 68 | 29 | 0.0 | 2.0 | 0.00 | 0.05 | 0.05 | 96 | 1009.0 |
| 20260831064554 | 68 | 14 | 0.0 | 2.0 | 0.00 | 0.05 | 0.05 | 96 | 1009.3 |
| 20260831063054 | 68 | 14 | 0.0 | 3.0 | 0.00 | 0.05 | 0.05 | 95 | 1009.7 |
| 20260831061553 | 68 | 70 | 0.0 | 2.0 | 0.02 | 0.05 | 0.05 | 95 | 1009.5 |
| 20260831060051 | 68 | 70 | 0.0 | 0.0 | 0.05 | 0.05 | 0.05 | 94 | 1009.5 |
| 20260831054551 | 69 | 70 | 0.0 | 0.0 | 0.05 | 0.05 | 0.05 | 94 | 1009.4 |
| 20260831053047 | 69 | 70 | 0.0 | 0.0 | 0.05 | 0.05 | 0.05 | 94 | 1009.8 |
| 20260831051546 | 69 | 70 | 0.0 | 3.0 | 0.02 | 0.02 | 0.02 | 94 | 1009.9 |
| 20260831050042 | 69 | 69 | 0.0 | 2.0 | 0.00 | 0.00 | 0.00 | 94 | 1010.2 |
| 20260831044541 | 69 | 90 | 0.0 | 2.0 | 0.00 | 0.00 | 0.00 | 94 | 1009.9 |
| 20260831043040 | 69 | 90 | 0.0 | 2.0 | 0.00 | 0.00 | 0.00 | 94 | 1009.9 |
| 20260831041554 | 69 | 90 | 0.0 | 2.0 | 0.00 | 0.00 | 0.00 | 93 | 1010.2 |
| 20260831040038 | 69 | 90 | 0.0 | 2.0 | 0.00 | 0.00 | 0.00 | 93 | 1010.3 |
| 20260831034539 | 69 | 90 | 0.0 | 0.0 | 0.00 | 0.00 | 0.00 | 93 | 1010.4 |
| 20260831033037 | 69 | 90 | 0.0 | 1.0 | 0.00 | 0.00 | 0.00 | 92 | 1010.6 |
| 20260831031543 | 69 | 90 | 0.0 | 0.0 | 0.00 | 0.00 | 0.00 | 92 | 1010.5 |
| 20260831030036 | 69 | 90 | 0.0 | 2.0 | 0.00 | 0.00 | 0.00 | 92 | 1010.4 |
| 20260831024544 | 69 | 90 | 0.0 | 1.0 | 0.00 | 0.00 | 0.00 | 92 | 1010.5 |
| 20260831023035 | 69 | 90 | 1.0 | 4.0 | 0.00 | 0.00 | 0.00 | 92 | 1010.6 |
| 20260831021537 | 69 | 83 | 1.0 | 4.0 | 0.00 | 0.00 | 0.00 | 92 | 1010.6 |
| 20260831020036 | 69 | 88 | 1.0 | 7.0 | 0.00 | 0.00 | 0.00 | 92 | 1010.5 |
| 20260831014534 | 69 | 91 | 3.0 | 8.0 | 0.00 | 0.00 | 0.00 | 92 | 1010.5 |
| 20260831013035 | 69 | 62 | 4.0 | 11.0 | 0.00 | 0.00 | 0.00 | 92 | 1010.4 |
| 20260831011533 | 69 | 87 | 3.0 | 9.0 | 0.00 | 0.00 | 0.00 | 92 | 1010.5 |
| 20260831010037 | 69 | 61 | 4.0 | 9.0 | 0.00 | 0.00 | 0.00 | 92 | 1010.5 |
| 20260831004533 | 69 | 84 | 2.0 | 7.0 | 0.00 | 0.00 | 0.00 | 92 | 1010.6 |
| 20260831003035 | 69 | 68 | 5.0 | 10.0 | 0.00 | 0.00 | 0.00 | 92 | 1010.4 |
| 20260831001531 | 69 | 79 | 4.0 | 9.0 | 0.00 | 0.00 | 0.00 | 92 | 1010.4 |
| 20260831000030 | 69 | 72 | 3.0 | 14.0 | 0.00 | 0.00 | 0.00 | 92 | 1010.5 |
| 20260830234541 | 69 | 61 | 3.0 | 11.0 | 0.00 | 0.00 | 0.00 | 91 | 1010.7 |
| 20260830233029 | 69 | 33 | 5.0 | 9.0 | 0.00 | 0.00 | 0.00 | 91 | 1010.7 |
| 20260830231530 | 70 | 68 | 5.0 | 11.0 | 0.00 | 0.00 | 0.00 | 91 | 1010.7 |
| 20260830230031 | 69 | 83 | 3.0 | 12.0 | 0.00 | 0.00 | 0.00 | 91 | 1010.5 |
| 20260830224528 | 70 | 87 | 6.0 | 11.0 | 0.00 | 0.00 | 0.00 | 90 | 1010.8 |
| 20260830223028 | 70 | 45 | 6.0 | 13.0 | 0.00 | 0.00 | 0.00 | 90 | 1010.7 |
| 20260830221531 | 70 | 18 | 3.0 | 13.0 | 0.00 | 0.00 | 0.00 | 90 | 1010.5 |
| 20260830220027 | 70 | 74 | 4.0 | 15.0 | 0.00 | 0.00 | 0.00 | 89 | 1011.0 |
| 20260830214526 | 70 | 16 | 4.0 | 9.0 | 0.00 | 0.00 | 0.00 | 89 | 1010.9 |
| 20260830213026 | 70 | 61 | 1.0 | 10.0 | 0.00 | 0.00 | 0.00 | 89 | 1010.9 |
| 20260830211531 | 70 | 56 | 5.0 | 12.0 | 0.00 | 0.00 | 0.00 | 89 | 1011.1 |
| 20260830210024 | 70 | 71 | 6.0 | 11.0 | 0.00 | 0.00 | 0.00 | 89 | 1011.2 |
| 20260830204536 | 70 | 71 | 4.0 | 9.0 | 0.00 | 0.00 | 0.00 | 89 | 1011.2 |
| 20260830203024 | 70 | 33 | 6.0 | 16.0 | 0.00 | 0.00 | 0.00 | 88 | 1011.0 |
| 20260830201524 | 70 | 26 | 8.0 | 14.0 | 0.00 | 0.00 | 0.00 | 88 | 1011.1 |
| 20260830200037 | 69 | 54 | 4.0 | 12.0 | 0.00 | 0.00 | 0.00 | 89 | 1011.1 |
| 20260830194522 | 70 | 70 | 10.0 | 16.0 | 0.00 | 0.00 | 0.00 | 87 | 1011.1 |
| 20260830193026 | 70 | 58 | 4.0 | 13.0 | 0.00 | 0.00 | 0.00 | 88 | 1011.1 |
| 20260830191521 | 69 | 30 | 5.0 | 16.0 | 0.00 | 0.00 | 0.00 | 88 | 1011.3 |
| 20260830190021 | 70 | 68 | 6.0 | 16.0 | 0.00 | 0.00 | 0.00 | 87 | 1011.3 |
| 20260830184522 | 70 | 16 | 4.0 | 17.0 | 0.00 | 0.00 | 0.00 | 87 | 1011.4 |
| 20260830183018 | 70 | 55 | 6.0 | 12.0 | 0.00 | 0.00 | 0.00 | 88 | 1011.2 |
| 20260830181517 | 70 | 57 | 5.0 | 10.0 | 0.00 | 0.00 | 0.00 | 88 | 1011.3 |
| 20260830180017 | 70 | 63 | 4.0 | 14.0 | 0.00 | 0.00 | 0.00 | 88 | 1011.4 |
| 20260830174514 | 70 | 74 | 6.0 | 12.0 | 0.00 | 0.00 | 0.00 | 89 | 1011.4 |
| 20260830173013 | 69 | 47 | 5.0 | 14.0 | 0.00 | 0.00 | 0.00 | 90 | 1011.7 |
| 20260830171510 | 69 | 25 | 2.0 | 6.0 | 0.00 | 0.00 | 0.00 | 93 | 1011.9 |
| 20260830170007 | 68 | 357 | 2.0 | 7.0 | 0.00 | 0.00 | 0.00 | 93 | 1012.2 |
| 20260830164513 | 68 | 34 | 3.0 | 7.0 | 0.00 | 0.00 | 0.00 | 92 | 1012.0 |
| 20260830163005 | 68 | 48 | 2.0 | 9.0 | 0.00 | 0.00 | 0.00 | 91 | 1012.1 |
| 20260830161501 | 68 | 44 | 3.0 | 6.0 | 0.00 | 0.00 | 0.00 | 91 | 1012.6 |
| 20260830160100 | 68 | 57 | 3.0 | 9.0 | 0.00 | 0.00 | 0.00 | 91 | 1012.2 |
| 20260830154604 | 68 | 70 | 3.0 | 6.0 | 0.00 | 0.00 | 0.00 | 91 | 1011.8 |
| 20260830153107 | 67 | 35 | 4.0 | 9.0 | 0.00 | 0.00 | 0.00 | 92 | 1011.8 |
| 20260830151557 | 67 | 32 | 2.0 | 8.0 | 0.00 | 0.00 | 0.00 | 92 | 1011.7 |
| 20260830150059 | 67 | 70 | 3.0 | 7.0 | 0.00 | 0.00 | 0.00 | 93 | 1011.6 |
| 20260830144554 | 67 | 49 | 2.0 | 10.0 | 0.00 | 0.01 | 0.00 | 93 | 1011.5 |
| 20260830143054 | 67 | 7 | 1.0 | 7.0 | 0.00 | 0.01 | 0.00 | 94 | 1011.3 |
| 20260830141553 | 66 | 12 | 2.0 | 9.0 | 0.00 | 0.01 | 0.00 | 96 | 1011.3 |
| 20260830140050 | 66 | 351 | 3.0 | 5.0 | 0.00 | 0.01 | 0.00 | 97 | 1011.6 |
| 20260830134547 | 66 | 10 | 1.0 | 4.0 | 0.00 | 0.01 | 0.00 | 98 | 1011.8 |
| 20260830133042 | 65 | 40 | 0.0 | 2.0 | 0.00 | 0.01 | 0.00 | 98 | 1011.9 |
| 20260830131544 | 64 | 40 | 0.0 | 2.0 | 0.00 | 0.01 | 0.00 | 98 | 1011.6 |
| 20260830130036 | 64 | 91 | 0.0 | 2.0 | 0.00 | 0.01 | 0.00 | 98 | 1011.5 |
| 20260830124533 | 63 | 122 | 0.0 | 2.0 | 0.00 | 0.01 | 0.00 | 98 | 1011.5 |
| 20260830123033 | 63 | 122 | 0.0 | 2.0 | 0.00 | 0.01 | 0.00 | 98 | 1011.6 |
| 20260830121530 | 63 | 122 | 0.0 | 0.0 | 0.00 | 0.01 | 0.00 | 97 | 1011.6 |
| 20260830120026 | 63 | 122 | 0.0 | 1.0 | 0.00 | 0.01 | 0.00 | 97 | 1011.5 |
| 20260830114523 | 62 | 122 | 0.0 | 1.0 | 0.00 | 0.01 | 0.00 | 98 | 1011.2 |
| 20260830113022 | 62 | 122 | 0.0 | 0.0 | 0.00 | 0.01 | 0.00 | 97 | 1011.3 |
| 20260830111520 | 62 | 122 | 0.0 | 0.0 | 0.00 | 0.01 | 0.00 | 97 | 1011.3 |
| 20260830110020 | 62 | 122 | 0.0 | 0.0 | 0.00 | 0.01 | 0.00 | 97 | 1011.3 |